TimePST,TemperatureF,Dew PointF,Humidity,Sea Level PressureIn,VisibilityMPH,Wind Direction,Wind SpeedMPH,Gust SpeedMPH,PrecipitationIn,Events,Conditions,WindDirDegrees,DateUTC
12:53 AM,42.1,41.0,96,30.50,10.0,NE,4.6,-,N/A,,Clear,50,2013-02-15 08:53:00
1:53 AM,39.9,39.0,97,30.49,6.0,North,6.9,-,N/A,,Clear,360,2013-02-15 09:53:00
2:14 AM,42.8,41.0,93,30.48,6.0,NNE,8.1,-,N/A,,Scattered Clouds,20,2013-02-15 10:14:00
2:23 AM,42.8,42.8,100,30.48,6.0,NNE,5.8,-,N/A,,Mostly Cloudy,30,2013-02-15 10:23:00
2:53 AM,43.0,42.1,97,30.48,5.0,NNE,6.9,-,N/A,,Overcast,20,2013-02-15 10:53:00
3:22 AM,42.8,42.8,100,30.46,7.0,North,9.2,-,N/A,,Overcast,360,2013-02-15 11:22:00
3:53 AM,41.0,41.0,100,30.45,7.0,North,6.9,-,N/A,,Scattered Clouds,10,2013-02-15 11:53:00
4:14 AM,42.8,41.0,93,30.44,7.0,NNE,5.8,-,N/A,,Mostly Cloudy,30,2013-02-15 12:14:00
4:53 AM,43.0,42.1,97,30.44,10.0,NNE,8.1,-,N/A,,Overcast,30,2013-02-15 12:53:00
5:53 AM,43.0,41.0,93,30.43,10.0,NNE,8.1,-,N/A,,Overcast,20,2013-02-15 13:53:00
6:53 AM,43.0,41.0,93,30.41,10.0,NNE,6.9,-,N/A,,Overcast,30,2013-02-15 14:53:00
7:53 AM,41.0,39.9,96,30.41,10.0,North,4.6,-,N/A,,Scattered Clouds,10,2013-02-15 15:53:00
8:36 AM,44.6,41.0,87,30.40,10.0,NNE,5.8,-,N/A,,Partly Cloudy,30,2013-02-15 16:36:00
8:53 AM,45.0,41.0,86,30.41,10.0,NNE,4.6,-,N/A,,Partly Cloudy,20,2013-02-15 16:53:00
9:53 AM,46.9,41.0,80,30.40,10.0,NNE,8.1,-,N/A,,Scattered Clouds,30,2013-02-15 17:53:00
10:53 AM,50.0,42.1,74,30.38,10.0,Calm,Calm,-,N/A,,Clear,0,2013-02-15 18:53:00
11:53 AM,52.0,43.0,71,30.35,10.0,Calm,Calm,-,N/A,,Clear,0,2013-02-15 19:53:00
12:53 PM,55.9,42.1,60,30.31,10.0,Variable,3.5,-,N/A,,Clear,0,2013-02-15 20:53:00
1:53 PM,59.0,42.1,53,30.27,10.0,ENE,4.6,-,N/A,,Clear,60,2013-02-15 21:53:00
2:53 PM,59.0,43.0,55,30.25,10.0,Calm,Calm,-,N/A,,Clear,0,2013-02-15 22:53:00
4:53 PM,62.1,43.0,50,30.22,10.0,Calm,Calm,-,N/A,,Clear,0,2013-02-16 00:53:00
5:53 PM,55.0,44.1,67,30.22,10.0,SSW,4.6,-,N/A,,Clear,200,2013-02-16 01:53:00
6:53 PM,52.0,45.0,77,30.22,10.0,Calm,Calm,-,N/A,,Clear,0,2013-02-16 02:53:00
7:53 PM,48.0,44.1,86,30.23,10.0,South,6.9,-,N/A,,Clear,190,2013-02-16 03:53:00
8:53 PM,46.0,43.0,89,30.24,10.0,Calm,Calm,-,N/A,,Clear,0,2013-02-16 04:53:00
9:53 PM,45.0,42.1,90,30.26,10.0,Calm,Calm,-,N/A,,Clear,0,2013-02-16 05:53:00
10:53 PM,43.0,42.1,97,30.25,8.0,SE,4.6,-,N/A,,Clear,130,2013-02-16 06:53:00
11:53 PM,39.9,39.0,97,30.25,4.0,Calm,Calm,-,N/A,,Clear,0,2013-02-16 07:53:00